TimePST,TemperatureF,Dew PointF,Humidity,Sea Level PressureIn,VisibilityMPH,Wind Direction,Wind SpeedMPH,Gust SpeedMPH,PrecipitationIn,Events,Conditions,WindDirDegrees,DateUTC
12:17 AM,60.8,51.8,72,29.88,10.0,SSE,17.3,-,0.00,Rain,Light Rain,150,2012-12-13 08:17:00
12:51 AM,60.1,52.0,75,29.87,10.0,SE,10.4,-,0.02,,Mostly Cloudy,130,2012-12-13 08:51:00
1:51 AM,60.1,52.0,75,29.86,10.0,SSE,10.4,-,N/A,,Scattered Clouds,150,2012-12-13 09:51:00
2:51 AM,60.1,51.1,72,29.83,10.0,SE,11.5,-,N/A,,Overcast,140,2012-12-13 10:51:00
3:51 AM,60.1,51.1,72,29.81,10.0,SE,10.4,-,0.00,,Overcast,140,2012-12-13 11:51:00
4:51 AM,59.0,53.1,81,29.82,7.0,SSW,12.7,19.6,0.06,Rain,Light Rain,210,2012-12-13 12:51:00
4:58 AM,57.2,53.6,88,29.82,5.0,SW,10.4,19.6,0.02,Rain,Heavy Rain,230,2012-12-13 12:58:00
5:08 AM,57.2,55.4,94,29.81,2.5,South,4.6,-,0.11,Rain,Heavy Rain,180,2012-12-13 13:08:00
5:15 AM,57.2,53.6,88,29.82,3.0,WSW,16.1,33.4,0.20,Rain,Heavy Rain,250,2012-12-13 13:15:00
5:48 AM,57.2,53.6,88,29.83,2.5,SSW,4.6,-,0.46,Rain,Heavy Rain,200,2012-12-13 13:48:00
5:51 AM,57.0,54.0,89,29.83,2.5,South,3.5,-,0.49,Rain,Heavy Rain,190,2012-12-13 13:51:00
6:51 AM,55.9,53.1,90,29.83,2.5,SSW,3.5,-,0.54,Rain,Rain,200,2012-12-13 14:51:00
7:10 AM,55.4,53.6,94,29.82,4.0,Calm,Calm,-,0.06,Rain,Light Rain,0,2012-12-13 15:10:00
7:21 AM,55.4,53.6,94,29.83,3.0,West,6.9,-,0.08,Rain,Rain,270,2012-12-13 15:21:00
7:42 AM,55.4,51.8,88,29.83,5.0,WNW,4.6,-,0.13,Rain,Light Rain,300,2012-12-13 15:42:00
7:51 AM,55.9,53.1,90,29.83,7.0,NNW,3.5,-,0.13,Rain,Light Rain,340,2012-12-13 15:51:00
8:08 AM,55.4,51.8,88,29.83,7.0,Calm,Calm,-,0.00,,Overcast,0,2012-12-13 16:08:00
8:27 AM,55.4,51.8,88,29.84,5.0,Calm,Calm,-,0.00,Rain,Light Rain,0,2012-12-13 16:27:00
8:44 AM,55.4,53.6,94,29.85,2.0,Calm,Calm,-,0.03,Rain,Rain,0,2012-12-13 16:44:00
8:51 AM,55.0,53.1,93,29.85,1.8,Calm,Calm,-,0.05,Rain,Rain,0,2012-12-13 16:51:00
8:55 AM,55.4,53.6,94,29.85,4.0,Calm,Calm,-,0.00,Rain,Rain,0,2012-12-13 16:55:00
9:19 AM,55.4,53.6,94,29.85,2.0,SE,3.5,-,0.03,Rain,Rain,140,2012-12-13 17:19:00
9:24 AM,55.4,53.6,94,29.85,3.0,Calm,Calm,-,0.05,Rain,Rain,0,2012-12-13 17:24:00
9:51 AM,55.9,53.1,90,29.85,4.0,Calm,Calm,-,0.09,Rain,Rain,0,2012-12-13 17:51:00
10:51 AM,55.9,53.1,90,29.84,10.0,South,3.5,-,0.02,,Overcast,190,2012-12-13 18:51:00
11:45 AM,55.4,53.6,94,29.83,2.5,SW,8.1,-,0.07,Rain,Light Rain,230,2012-12-13 19:45:00
11:51 AM,55.9,53.1,90,29.83,3.0,WSW,6.9,-,0.12,Rain,Heavy Rain,240,2012-12-13 19:51:00
12:11 PM,55.4,51.8,88,29.81,7.0,Calm,Calm,-,0.03,Rain,Light Rain,0,2012-12-13 20:11:00
12:51 PM,57.9,51.1,78,29.80,10.0,West,3.5,-,0.04,,Mostly Cloudy,270,2012-12-13 20:51:00
1:51 PM,59.0,48.0,67,29.78,10.0,WNW,8.1,-,N/A,,Overcast,300,2012-12-13 21:51:00
2:51 PM,57.9,46.0,65,29.78,10.0,WNW,10.4,-,N/A,,Overcast,290,2012-12-13 22:51:00
3:51 PM,57.9,44.1,60,29.77,10.0,WNW,9.2,-,N/A,,Mostly Cloudy,300,2012-12-13 23:51:00
4:51 PM,57.0,43.0,59,29.79,10.0,WNW,6.9,-,N/A,,Mostly Cloudy,290,2012-12-14 00:51:00
5:51 PM,57.0,42.1,57,29.79,10.0,WNW,6.9,-,N/A,,Mostly Cloudy,290,2012-12-14 01:51:00
6:51 PM,57.0,42.1,57,29.79,10.0,WNW,8.1,-,N/A,,Mostly Cloudy,290,2012-12-14 02:51:00
7:51 PM,57.0,41.0,55,29.80,10.0,WNW,10.4,-,N/A,,Mostly Cloudy,300,2012-12-14 03:51:00
8:51 PM,55.9,39.0,53,29.80,10.0,West,8.1,-,N/A,,Mostly Cloudy,280,2012-12-14 04:51:00
9:51 PM,55.9,39.9,55,29.80,10.0,West,9.2,-,N/A,,Mostly Cloudy,280,2012-12-14 05:51:00
10:51 PM,55.9,37.9,51,29.80,10.0,WNW,11.5,-,N/A,,Mostly Cloudy,290,2012-12-14 06:51:00
11:51 PM,55.9,37.9,51,29.81,10.0,WNW,9.2,-,N/A,,Mostly Cloudy,300,2012-12-14 07:51:00